Location: ??
(35.5653°N, 139.6194°E)
Time: 13:35:30
(UTC+00:00)

Delta 2 Rocket - Pass Details

Date: 27 February 2020
Orbit: 416 x 808 km, 35.6° (Epoch: 06 April)

Event Time Altitude Azimuth Distance (km) Brightness Sun altitude
Exits shadow 20:38:58 - 239° (WSW) 2,037 5.7 -7.9°
Reaches altitude 10° 20:39:56 10° 236° (WSW) 1,649 5.3 -7.7°
Maximum altitude 20:43:31 46° 163° (SSE) 613 3.8 -7.0°
Drops below altitude 10° 20:46:49 10° 88° (E) 1,521 7.4 -6.3°
Sets 20:48:55 0° 82° (E) 2,364 8.5 -5.9°
